Regional Weather Roundup
Issued by NWS

Home | Current Version | Previous Version | Text Only | Print | Product List | Glossary Off
Versions: 1 2 3 4 5 6 7 8 9 10 11 12 13 14 15 16 17 18 19 20 21 22 23 24 25 26 27 28 29 30 31 32 33 34 35 36 37 38 39 40 41 42 43 44 45 46 47 48 49 50

000
ASUS43 KMKX 212000
RWRWI

WISCONSIN REGIONAL WEATHER ROUNDUP
NATIONAL WEATHER SERVICE MILWAUKEE/SULLIVAN WI
200 PM CST TUE NOV 21 2017

NOTE: "FAIR" INDICATES FEW OR NO CLOUDS BELOW 12,000 FEET WITH NO
SIGNIFICANT WEATHER AND/OR OBSTRUCTIONS TO VISIBILITY.

WIZ001-002-006>008-014>016-023>028-212100-
NORTHWEST WISCONSIN

CITY           SKY/WX    TMP DP  RH WIND       PRES   REMARKS
SUPERIOR ARPT  SUNNY     28   9  46 NW17      30.09R WCI  15
ASHLAND        PTSUNNY   26  10  50 NW15G24   30.05R WCI  14
HAYWARD        SUNNY     26   8  46 NW8       30.04R WCI  18
SIREN          SUNNY     28   8  43 NW17      30.08R WCI  15
CUMBERLAND     SUNNY     27  10  50 NW15      30.04R WCI  15
RICE LAKE      MOSUNNY   27  12  52 NW14G20   30.06R WCI  16
CHETEK         CLOUDY    26  13  57 NW6G17    30.05R WCI  19
LADYSMITH      CLOUDY    28  13  54 NW14      30.03R WCI  16
EAU CLAIRE     NOT AVBL
MENOMONIE      MOSUNNY   28  12  50 NW18G24   30.08R WCI  16
NEW RICHMOND   SUNNY     28  11  48 NW14G25   30.10R WCI  17
OSCEOLA        SUNNY     28  12  50 NW12G26   30.14R WCI  18
$$

WIZ003>005-009-010-017-018-212100-
NORTH CENTRAL WISCONSIN

CITY           SKY/WX    TMP DP  RH WIND       PRES   REMARKS
MANITOWISH WTR LGT SNOW  19  13  76 NW18G26   29.93R WCI   4
ARBOR VITAE    LGT SNOW  22  18  81 N14       29.91R WCI  10
WOODRUFF       LGT SNOW  22  18  81 N14       29.91R WCI  10
RHINELANDER    FLURRIES  23  14  68 NW8G17    29.92R WCI  14
EAGLE RIVER    LGT SNOW  21  16  79 NW21G26   29.90R VSB 1   WCI   5
LAND O LAKES   LGT SNOW  22  16  79 NW16G25   29.90R WCI   8
PHILLIPS       FLURRIES  22  13  69 NW9G17    29.97R WCI  12
TOMAHAWK       LGT SNOW  24  15  68 NW17G24   29.94R WCI  10
MEDFORD        CLOUDY    25  12  58 NW18G25   29.94R WCI  11
MERRILL        FLURRIES  26  15  63 NW16      29.95R WCI  13
$$

WIZ029-030-035-036-043>047-212100-
CENTRAL WISCONSIN

CITY           SKY/WX    TMP DP  RH WIND       PRES   REMARKS
WAUSAU         CLOUDY    26  13  57 NW16G29   29.94R WCI  14
MOSINEE        NOT AVBL
MARSHFIELD     PTSUNNY   28  12  51 NW21G31   29.96R WCI  15
STEVENS POINT  CLOUDY    27  10  49 NW10G20   29.94R WCI  17
WAUPACA        PTSUNNY   32  12  44 NW12G21   29.93R WCI  23
WAUTOMA        NOT AVBL
WISC RAPIDS    CLOUDY    29  12  49 N21G29    29.99R WCI  16
CAMP DOUGLAS   PTSUNNY   32  12  43 NW15      30.00R WCI  22
$$

WIZ011>013-019>022-031-037>040-048>050-212100-
NORTHEAST WISCONSIN

CITY           SKY/WX    TMP DP  RH WIND       PRES   REMARKS
ANTIGO         CLOUDY    26  13  59 N18G24    29.88R WCI  12
SHAWANO        CLOUDY    32  13  45 NW15G23   29.90R WCI  22
OCONTO         CLOUDY    31  14  48 NW14G24   29.87R WCI  21
STURGEON BAY   CLOUDY    31  17  56 NW20      29.86R WCI  19
GREEN BAY      CLOUDY    32  17  54 NW18G25   29.90R WCI  20
MANITOWOC      CLOUDY    33  15  47 NW16G25   29.88R WCI  23
APPLETON       CLOUDY    30  10  43 NW17G23   29.89R WCI  18
CLINTONVILLE   CLOUDY    30  10  43 N18G26    29.91R WCI  18
OSHKOSH        CLOUDY    30  15  53 NW21G26   29.91R WCI  17
$$

WIZ032>034-041-042-053>061-212100-
SOUTHWEST WISCONSIN

CITY           SKY/WX    TMP DP  RH WIND       PRES   REMARKS
LA CROSSE      SUNNY     33  13  43 NW18G28   30.06R WCI  22
SPARTA         MOSUNNY   31  13  48 NW18G26   30.03R WCI  19
VIROQUA        MOSUNNY   29  16  58 NW17G26   30.00R WCI  17
BOSCOBEL       SUNNY     35  14  42 NW17G28   30.03R WCI  25
PRAIRIE DU CHI SUNNY     33  12  42 NW15G24   30.03R WCI  23
PLATTEVILLE    CLOUDY    34  21  60 W18G25    29.97R WCI  23
$$

WIZ056-057-062-063-064-067-068-212100-
SOUTH CENTRAL WISCONSIN

CITY           SKY/WX    TMP DP  RH WIND       PRES   REMARKS
REEDSBURG      PTSUNNY   31  14  48 NW21G26   29.96R WCI  19
BARABOO/DELLS  MOSUNNY   32  13  45 NW17G26   29.95R WCI  21
LONE ROCK      NOT AVBL
MINERAL POINT  CLOUDY    32  21  64 NW15G24   29.95R WCI  22
MADISON        PTSUNNY   34  15  46 N16G25    29.94R WCI  24
MIDDLETON      PTSUNNY   34  17  51 NW22      29.93R WCI  22
WATERTOWN      PTSUNNY   33  15  49 NW13G24   29.91R WCI  23
MONROE         CLOUDY    34  18  51 NW20G29   29.92R WCI  22
JANESVILLE     MOSUNNY   37  18  44 NW22      29.92R WCI  27
$$

WIZ051-052-058>065-066-070>072-212100-
SOUTHEAST WISCONSIN

CITY           SKY/WX    TMP DP  RH WIND       PRES   REMARKS
MILWAUKEE      CLOUDY    35  18  49 NW18G25   29.90R WCI  24
WAUKESHA       PTSUNNY   30  16  55 NW17G25   29.91R WCI  18
MILWAUKEE/TIMM CLOUDY    32  14  47 NW20G28   29.90R WCI  20
RACINE         CLOUDY    34  17  50 NW16G29   29.91R WCI  24
BURLINGTON     PTSUNNY   35  21  57 NW20G25   29.91R WCI  23
KENOSHA        CLOUDY    35  18  49 NW16G28   29.90R WCI  25
FOND DU LAC    CLOUDY    31  15  52 NW21G26   29.91R WCI  18
SHEBOYGAN      CLOUDY    33  19  56 NW14G24   29.88R WCI  23
WEST BEND      CLOUDY    32  16  51 NW17G31   29.88R WCI  21
JUNEAU         CLOUDY    31  16  54 NW13G22   29.92R WCI  21
$$

LSZ147-162-212100-
LAKE SUPERIOR

STATION/POSITION TIME  TEMP    WIND        PRES    WAVE
                       AIR SEA DIR/SP/G            HT/PER
                 (UTC) (F)     (DEG/KT/KT) (MB)    (FT/S)
DEVILS ISLAND    1900   22     320/ 21/ 26 1017.6R
SAXON HARBOR     1930   25     320/ 19/ 24 1016.9R
$$

LMZ867-665-643>646-212100-
LAKE MICHIGAN

STATION/POSITION TIME  TEMP    WIND        PRES    WAVE
                       AIR SEA DIR/SP/G            HT/PER
                 (UTC) (F)     (DEG/KT/KT) (MB)    (FT/S)
N MID LAKE BUOY  1850   34 47  290/ 23/ 29 1008.5R   7/ 6
NORTHPORT PIER   1940   32     300/ 15/ 26 1010.5R
KEWAUNEE LAKESHO 1930   33     310/ 12/ 23 1010.0R
SHEBOYGAN LAKESH 1900   33     290/ 18/ 21 1011.2R
PORT WASHINGTON  1940   34     300/  9/ 19 1012.9R
MILWAUKEE LAKESH 1930   33     290/ 16/ 20   N/A
S MID LAKE BUOY  1850   40 48  340/ 23/ 29 1009.4R   4/ 4
KENOSHA   LAKESH 1900   36     320/ 25/ 31 1010.5
$$

TC  - TEMPERATURE IN CELSIUS
VSB - VISIBILITY IN STATUTE MILES
WCI - WIND CHILL INDEX
HX  - HEAT INDEX





USA.gov is the U.S. government's official web portal to all federal, state and local government web resources and services.